Flag for Germany Weather past 2 weeks in Limburg an der Lahn, Hesse, Germany

Now
59 °F

Passing clouds.


Feels Like: 57 °F
Forecast: 41 / 68 °F
Wind: 13 mph from East

Location: Hessen


UV Index: 3 (Moderate)

Visibility: N/A


Pressure: 29.71 "Hg

Humidity: 48%

Dew point: 39 °F

Location of Limburg an der LahnLocation

Historic Weather in Limburg an der Lahn

°F

Limburg an der Lahn temperature yesterday

Maximum temperature yesterday: 55 °F (at 5:50 PM)
Minimum temperature yesterday: 36 °F (at 7:50 AM)
Average temperature yesterday: 47 °F

Past Weeks' High & Low Weather Summary

 TemperatureHumidityPressure
High63 °F (Apr 7, 4:20 PM)100% (Apr 5, 6:20 PM)30.39 "Hg (Apr 5, 6:20 PM)
Low32 °F (Apr 15, 6:50 AM)41% (Apr 17, 5:50 PM)29.71 "Hg (Apr 20, 3:50 PM)
Average47 °F73%30.07 "Hg
* Reported Apr 5 6:20 PM — Apr 20 6:50 PM, Limburg an der Lahn, Weather by CustomWeather, © 2014

Note: Actual official high and low records may vary slightly from our data, if they occured in-between our weather recording intervals... More about our weather records

Advertising

Historic Weather Conditions — Data for Previous 24 hours

 ConditionsComfort  
Time TempWeatherWind HumidityBarometerVisibility
6:50 PM
Apr 20
59 °FPassing clouds.13 mph48%29.71 "HgN/A
6:20 PM59 °FPassing clouds.12 mph48%29.71 "HgN/A
5:50 PM59 °FPassing clouds.13 mph51%29.71 "HgN/A
5:20 PM61 °FScattered clouds.15 mph48%29.71 "HgN/A
4:50 PM59 °FScattered clouds.17 mph51%29.71 "HgN/A
4:20 PM59 °FScattered clouds.15 mph48%29.71 "HgN/A
3:50 PM61 °FScattered clouds.18 mph48%29.71 "HgN/A
3:20 PM61 °FScattered clouds.16 mph48%29.74 "HgN/A
2:50 PM59 °FScattered clouds.14 mph55%29.74 "HgN/A
2:20 PM57 °FScattered clouds.16 mph59%29.74 "HgN/A
1:50 PM61 °FScattered clouds.16 mph55%29.74 "HgN/A
1:20 PM59 °FScattered clouds.16 mph55%29.74 "HgN/A
12:50 PM57 °FScattered clouds.17 mph59%29.74 "HgN/A
12:20 PM57 °FScattered clouds.16 mph63%29.74 "HgN/A
11:50 AM57 °FScattered clouds.16 mph67%29.74 "HgN/A
11:20 AM55 °FScattered clouds.15 mph72%29.77 "HgN/A
10:50 AM55 °FScattered clouds.22 mph72%29.77 "HgN/A
10:20 AM55 °FScattered clouds.18 mph67%29.77 "HgN/A
9:50 AM54 °FPassing clouds.18 mph77%29.77 "HgN/A
9:20 AM54 °FPassing clouds.16 mph77%29.77 "HgN/A
8:50 AM54 °FPassing clouds.9 mph77%29.77 "HgN/A
8:20 AM52 °FPassing clouds.12 mph82%29.77 "HgN/A
7:50 AM50 °FPassing clouds.12 mph88%29.77 "HgN/A
8:50 PM
Apr 19
52 °FScattered clouds.14 mph77%29.89 "HgN/A
8:20 PM54 °FScattered clouds.15 mph72%29.89 "HgN/A
7:50 PM54 °FScattered clouds.13 mph72%29.89 "HgN/A
7:20 PM54 °FPassing clouds.15 mph72%29.89 "HgN/A
Weather by CustomWeather, © 2014

See weather overview